Year,Month,Day,Hour,Minute,Value (Times are PST for temperature in C)
2008,05,01,00,00,7.20
2008,05,01,00,01,7.20
2008,05,01,00,02,7.20
2008,05,01,00,03,7.20
2008,05,01,00,04,7.20
2008,05,01,00,05,7.20
2008,05,01,00,06,7.20
2008,05,01,00,07,7.20
2008,05,01,00,08,7.10
2008,05,01,00,09,7.10
2008,05,01,00,10,7.00
2008,05,01,00,11,6.90
2008,05,01,00,12,6.90
2008,05,01,00,13,6.80
2008,05,01,00,14,6.80
2008,05,01,00,15,6.80
2008,05,01,00,16,6.70
2008,05,01,00,17,6.70
2008,05,01,00,18,6.70
2008,05,01,00,19,6.70
2008,05,01,00,20,6.70
2008,05,01,00,21,6.70
2008,05,01,00,22,6.70
2008,05,01,00,23,6.70
2008,05,01,00,24,6.70
2008,05,01,00,25,6.70
2008,05,01,00,26,6.70
2008,05,01,00,27,6.70
2008,05,01,00,28,6.70
2008,05,01,00,29,6.70
2008,05,01,00,30,6.70
2008,05,01,00,31,6.70
2008,05,01,00,32,6.70
2008,05,01,00,33,6.70
2008,05,01,00,34,6.70
2008,05,01,00,35,6.70
2008,05,01,00,36,6.70
2008,05,01,00,37,6.70
2008,05,01,00,38,6.70
2008,05,01,00,39,6.70
2008,05,01,00,40,6.70
2008,05,01,00,41,6.70
2008,05,01,00,42,6.70
2008,05,01,00,43,6.70
2008,05,01,00,44,6.70
2008,05,01,00,45,6.70
2008,05,01,00,46,6.70
2008,05,01,00,47,6.60
2008,05,01,00,48,6.60
2008,05,01,00,49,6.60
2008,05,01,00,50,6.60
2008,05,01,00,51,6.60
2008,05,01,00,52,6.60
2008,05,01,00,53,6.60
2008,05,01,00,54,6.60
2008,05,01,00,55,6.60
2008,05,01,00,56,6.60
2008,05,01,00,57,6.60
2008,05,01,00,58,6.60
2008,05,01,00,59,6.70
2008,05,01,01,00,6.70
2008,05,01,01,01,6.70
2008,05,01,01,02,6.70
2008,05,01,01,03,6.70
2008,05,01,01,04,6.70
2008,05,01,01,05,6.70
2008,05,01,01,06,6.70
2008,05,01,01,07,6.70
2008,05,01,01,08,6.70
2008,05,01,01,09,6.70
2008,05,01,01,10,6.70
2008,05,01,01,11,6.70
2008,05,01,01,12,6.60
2008,05,01,01,13,6.60
2008,05,01,01,14,6.60
2008,05,01,01,15,6.60
2008,05,01,01,16,6.60
2008,05,01,01,17,6.60
2008,05,01,01,18,6.70
2008,05,01,01,19,6.70
2008,05,01,01,20,6.70
2008,05,01,01,21,6.70
2008,05,01,01,22,6.70
2008,05,01,01,23,6.60
2008,05,01,01,24,6.60
2008,05,01,01,25,6.60
2008,05,01,01,26,6.60
2008,05,01,01,27,6.50
2008,05,01,01,28,6.50
2008,05,01,01,29,6.40
2008,05,01,01,30,6.40
2008,05,01,01,31,6.40
2008,05,01,01,32,6.30
2008,05,01,01,33,6.30
2008,05,01,01,34,6.30
2008,05,01,01,35,6.30
2008,05,01,01,36,6.30
2008,05,01,01,37,6.20
2008,05,01,01,38,6.20
2008,05,01,01,39,6.20
2008,05,01,01,40,6.20
2008,05,01,01,41,6.20
2008,05,01,01,42,6.20
2008,05,01,01,43,6.10
2008,05,01,01,44,6.10
2008,05,01,01,45,6.10
2008,05,01,01,46,6.10
2008,05,01,01,47,6.10
2008,05,01,01,48,6.10
2008,05,01,01,49,6.10
2008,05,01,01,50,6.10
2008,05,01,01,51,6.10
2008,05,01,01,52,6.10
2008,05,01,01,53,6.10
2008,05,01,01,54,6.10
2008,05,01,01,55,6.10
2008,05,01,01,56,6.20
2008,05,01,01,57,6.20
2008,05,01,01,58,6.20
2008,05,01,01,59,6.20
2008,05,01,02,00,6.20
2008,05,01,02,01,6.20
2008,05,01,02,02,6.20
2008,05,01,02,03,6.30
2008,05,01,02,04,6.20
2008,05,01,02,05,6.20
2008,05,01,02,06,6.10
2008,05,01,02,07,6.10
2008,05,01,02,08,6.00
2008,05,01,02,09,5.90
2008,05,01,02,10,5.90
2008,05,01,02,11,5.90
2008,05,01,02,12,5.80
2008,05,01,02,13,5.80
2008,05,01,02,14,5.80
2008,05,01,02,15,5.80
2008,05,01,02,16,5.80
2008,05,01,02,17,5.80
2008,05,01,02,18,5.80
2008,05,01,02,19,5.80
2008,05,01,02,20,5.80
2008,05,01,02,21,5.80
2008,05,01,02,22,5.80
2008,05,01,02,23,5.80
2008,05,01,02,24,5.80
2008,05,01,02,25,5.80
2008,05,01,02,26,5.70
2008,05,01,02,27,5.70
2008,05,01,02,28,5.70
2008,05,01,02,29,5.70
2008,05,01,02,30,5.70
2008,05,01,02,31,5.60
2008,05,01,02,32,5.60
2008,05,01,02,33,5.60
2008,05,01,02,34,5.60
2008,05,01,02,35,5.70
2008,05,01,02,36,5.70
2008,05,01,02,37,5.70
2008,05,01,02,38,5.70
2008,05,01,02,39,5.70
2008,05,01,02,40,5.70
2008,05,01,02,41,5.70
2008,05,01,02,42,5.70
2008,05,01,02,43,5.70
2008,05,01,02,44,5.80
2008,05,01,02,45,5.80
2008,05,01,02,46,5.80
2008,05,01,02,47,5.80
2008,05,01,02,48,5.80
2008,05,01,02,49,5.80
2008,05,01,02,50,5.80
2008,05,01,02,51,5.80
2008,05,01,02,52,5.80
2008,05,01,02,53,5.80
2008,05,01,02,54,5.80
2008,05,01,02,55,5.80
2008,05,01,02,56,5.80
2008,05,01,02,57,5.80
2008,05,01,02,58,5.80
2008,05,01,02,59,5.80
2008,05,01,03,00,5.80
2008,05,01,03,01,5.80
2008,05,01,03,02,5.80
2008,05,01,03,03,5.70
2008,05,01,03,04,5.70
2008,05,01,03,05,5.70
2008,05,01,03,06,5.70
2008,05,01,03,07,5.60
2008,05,01,03,08,5.60
2008,05,01,03,09,5.60
2008,05,01,03,10,5.60
2008,05,01,03,11,5.60
2008,05,01,03,12,5.60
2008,05,01,03,13,5.60
2008,05,01,03,14,5.60
2008,05,01,03,15,5.60
2008,05,01,03,16,5.60
2008,05,01,03,17,5.60
2008,05,01,03,18,5.60
2008,05,01,03,19,5.60
2008,05,01,03,20,5.60
2008,05,01,03,21,5.60
2008,05,01,03,22,5.70
2008,05,01,03,23,5.70
2008,05,01,03,24,5.70
2008,05,01,03,25,5.80
2008,05,01,03,26,5.80
2008,05,01,03,27,5.90
2008,05,01,03,28,5.90
2008,05,01,03,29,5.90
2008,05,01,03,30,5.90
2008,05,01,03,31,5.90
2008,05,01,03,32,5.90
2008,05,01,03,33,5.90
2008,05,01,03,34,5.90
2008,05,01,03,35,5.90
2008,05,01,03,36,5.80
2008,05,01,03,37,5.80
2008,05,01,03,38,5.80
2008,05,01,03,39,5.80
2008,05,01,03,40,5.80
2008,05,01,03,41,5.80
2008,05,01,03,42,5.70
2008,05,01,03,43,5.70
2008,05,01,03,44,5.70
2008,05,01,03,45,5.70
2008,05,01,03,46,5.70
2008,05,01,03,47,5.70
2008,05,01,03,48,5.70
2008,05,01,03,49,5.60
2008,05,01,03,50,5.60
2008,05,01,03,51,5.60
2008,05,01,03,52,5.60
2008,05,01,03,53,5.60
2008,05,01,03,54,5.50
2008,05,01,03,55,5.50
2008,05,01,03,56,5.40
2008,05,01,03,57,5.40
2008,05,01,03,58,5.40
2008,05,01,03,59,5.40
2008,05,01,04,00,5.40
2008,05,01,04,01,5.40
2008,05,01,04,02,5.40
2008,05,01,04,03,5.30
2008,05,01,04,04,5.30
2008,05,01,04,05,5.30
2008,05,01,04,06,5.30
2008,05,01,04,07,5.30
2008,05,01,04,08,5.30
2008,05,01,04,09,5.20
2008,05,01,04,10,5.20
2008,05,01,04,11,5.20
2008,05,01,04,12,5.10
2008,05,01,04,13,5.10
2008,05,01,04,14,5.10
2008,05,01,04,15,5.10
2008,05,01,04,16,5.10
2008,05,01,04,17,5.10
2008,05,01,04,18,5.10
2008,05,01,04,19,5.10
2008,05,01,04,20,5.10
2008,05,01,04,21,5.20
2008,05,01,04,22,5.30
2008,05,01,04,23,5.30
2008,05,01,04,24,5.40
2008,05,01,04,25,5.40
2008,05,01,04,26,5.40
2008,05,01,04,27,5.40
2008,05,01,04,28,5.40
2008,05,01,04,29,5.40
2008,05,01,04,30,5.40
2008,05,01,04,31,5.40
2008,05,01,04,32,5.40
2008,05,01,04,33,5.40
2008,05,01,04,34,5.40
2008,05,01,04,35,5.40
2008,05,01,04,36,5.30
2008,05,01,04,37,5.30
2008,05,01,04,38,5.20
2008,05,01,04,39,5.00
2008,05,01,04,40,4.90
2008,05,01,04,41,4.80
2008,05,01,04,42,4.70
2008,05,01,04,43,4.70
2008,05,01,04,44,4.60
2008,05,01,04,45,4.60
2008,05,01,04,46,4.60
2008,05,01,04,47,4.60
2008,05,01,04,48,4.50
2008,05,01,04,49,4.50
2008,05,01,04,50,4.50
2008,05,01,04,51,4.40
2008,05,01,04,52,4.40
2008,05,01,04,53,4.40
2008,05,01,04,54,4.40
2008,05,01,04,55,4.30
2008,05,01,04,56,4.30
2008,05,01,04,57,4.30
2008,05,01,04,58,4.30
2008,05,01,04,59,4.30
2008,05,01,05,00,4.30
2008,05,01,05,01,4.30
2008,05,01,05,02,4.20
2008,05,01,05,03,4.20
2008,05,01,05,04,4.20
2008,05,01,05,05,4.20
2008,05,01,05,06,4.20
2008,05,01,05,07,4.20
2008,05,01,05,08,4.20
2008,05,01,05,09,4.20
2008,05,01,05,10,4.20
2008,05,01,05,11,4.30
2008,05,01,05,12,4.30
2008,05,01,05,13,4.30
2008,05,01,05,14,4.30
2008,05,01,05,15,4.40
2008,05,01,05,16,4.40
2008,05,01,05,17,4.50
2008,05,01,05,18,4.50
2008,05,01,05,19,4.60
2008,05,01,05,20,4.60
2008,05,01,05,21,4.70
2008,05,01,05,22,4.70
2008,05,01,05,23,4.70
2008,05,01,05,24,4.70
2008,05,01,05,25,4.70
2008,05,01,05,26,4.70
2008,05,01,05,27,4.70
2008,05,01,05,28,4.80
2008,05,01,05,29,4.80
2008,05,01,05,30,4.80
2008,05,01,05,31,4.80
2008,05,01,05,32,4.80
2008,05,01,05,33,4.80
2008,05,01,05,34,4.80
2008,05,01,05,35,4.80
2008,05,01,05,36,4.80
2008,05,01,05,37,4.80
2008,05,01,05,38,4.80
2008,05,01,05,39,4.80
2008,05,01,05,40,4.70
2008,05,01,05,41,4.70
2008,05,01,05,42,4.70
2008,05,01,05,43,4.60
2008,05,01,05,44,4.60
2008,05,01,05,45,4.60
2008,05,01,05,46,4.50
2008,05,01,05,47,4.50
2008,05,01,05,48,4.50
2008,05,01,05,49,4.50
2008,05,01,05,50,4.50
2008,05,01,05,51,4.50
2008,05,01,05,52,4.50
2008,05,01,05,53,4.50
2008,05,01,05,54,4.60
2008,05,01,05,55,4.60
2008,05,01,05,56,4.60
2008,05,01,05,57,4.60
2008,05,01,05,58,4.60
2008,05,01,05,59,4.70
2008,05,01,06,00,4.70
2008,05,01,06,01,4.70
2008,05,01,06,02,4.70
2008,05,01,06,03,4.70
2008,05,01,06,04,4.80
2008,05,01,06,05,4.80
2008,05,01,06,06,4.80
2008,05,01,06,07,4.80
2008,05,01,06,08,4.80
2008,05,01,06,09,4.80
2008,05,01,06,10,4.80
2008,05,01,06,11,4.80
2008,05,01,06,12,4.80
2008,05,01,06,13,4.90
2008,05,01,06,14,4.90
2008,05,01,06,15,4.90
2008,05,01,06,16,4.90
2008,05,01,06,17,4.90
2008,05,01,06,18,4.90
2008,05,01,06,19,4.90
2008,05,01,06,20,4.90
2008,05,01,06,21,4.90
2008,05,01,06,22,4.90
2008,05,01,06,23,4.90
2008,05,01,06,24,4.90
2008,05,01,06,25,4.90
2008,05,01,06,26,4.90
2008,05,01,06,27,4.90
2008,05,01,06,28,4.90
2008,05,01,06,29,5.00
2008,05,01,06,30,5.00
2008,05,01,06,31,5.00
2008,05,01,06,32,5.00
2008,05,01,06,33,5.00
2008,05,01,06,34,5.00
2008,05,01,06,35,5.00
2008,05,01,06,36,5.00
2008,05,01,06,37,5.00
2008,05,01,06,38,5.10
2008,05,01,06,39,5.10
2008,05,01,06,40,5.00
2008,05,01,06,41,5.10
2008,05,01,06,42,5.10
2008,05,01,06,43,5.10
2008,05,01,06,44,5.10
2008,05,01,06,45,5.10
2008,05,01,06,46,5.10
2008,05,01,06,47,5.10
2008,05,01,06,48,5.20
2008,05,01,06,49,5.20
2008,05,01,06,50,5.20
2008,05,01,06,51,5.30
2008,05,01,06,52,5.30
2008,05,01,06,53,5.30
2008,05,01,06,54,5.40
2008,05,01,06,55,5.40
2008,05,01,06,56,5.40
2008,05,01,06,57,5.50
2008,05,01,06,58,5.50
2008,05,01,06,59,5.60
2008,05,01,07,00,5.60
2008,05,01,07,01,5.60
2008,05,01,07,02,5.60
2008,05,01,07,03,5.70
2008,05,01,07,04,5.70
2008,05,01,07,05,5.70
2008,05,01,07,06,5.70
2008,05,01,07,07,5.70
2008,05,01,07,08,5.70
2008,05,01,07,09,5.80
2008,05,01,07,10,5.80
2008,05,01,07,11,5.80
2008,05,01,07,12,5.80
2008,05,01,07,13,5.80
2008,05,01,07,14,5.80
2008,05,01,07,15,5.80
2008,05,01,07,16,5.90
2008,05,01,07,17,5.90
2008,05,01,07,18,5.90
2008,05,01,07,19,6.00
2008,05,01,07,20,6.00
2008,05,01,07,21,6.10
2008,05,01,07,22,6.10
2008,05,01,07,23,6.10
2008,05,01,07,24,6.20
2008,05,01,07,25,6.20
2008,05,01,07,26,6.20
2008,05,01,07,27,6.30
2008,05,01,07,28,6.30
2008,05,01,07,29,6.30
2008,05,01,07,30,6.40
2008,05,01,07,31,6.40
2008,05,01,07,32,6.50
2008,05,01,07,33,6.50
2008,05,01,07,34,6.50
2008,05,01,07,35,6.60
2008,05,01,07,36,6.60
2008,05,01,07,37,6.60
2008,05,01,07,38,6.70
2008,05,01,07,39,6.70
2008,05,01,07,40,6.70
2008,05,01,07,41,6.70
2008,05,01,07,42,6.70
2008,05,01,07,43,6.80
2008,05,01,07,44,6.80
2008,05,01,07,45,6.80
2008,05,01,07,46,6.80
2008,05,01,07,47,6.80
2008,05,01,07,48,6.80
2008,05,01,07,49,6.90
2008,05,01,07,50,6.90
2008,05,01,07,51,6.90
2008,05,01,07,52,6.90
2008,05,01,07,53,7.00
2008,05,01,07,54,7.00
2008,05,01,07,55,7.10
2008,05,01,07,56,7.10
2008,05,01,07,57,7.20
2008,05,01,07,58,7.20
2008,05,01,07,59,7.20
2008,05,01,08,00,7.20
2008,05,01,08,01,7.30
2008,05,01,08,02,7.40
2008,05,01,08,03,7.40
2008,05,01,08,04,7.50
2008,05,01,08,05,7.60
2008,05,01,08,06,7.70
2008,05,01,08,07,7.80
2008,05,01,08,08,7.90
2008,05,01,08,09,8.00
2008,05,01,08,10,8.10
2008,05,01,08,11,8.10
2008,05,01,08,12,8.10
2008,05,01,08,13,8.10
2008,05,01,08,14,8.10
2008,05,01,08,15,8.10
2008,05,01,08,16,8.10
2008,05,01,08,17,8.10
2008,05,01,08,18,8.10
2008,05,01,08,19,8.10
2008,05,01,08,20,8.20
2008,05,01,08,21,8.20
2008,05,01,08,22,8.30
2008,05,01,08,23,8.30
2008,05,01,08,24,8.40
2008,05,01,08,25,8.40
2008,05,01,08,26,8.40
2008,05,01,08,27,8.40
2008,05,01,08,28,8.40
2008,05,01,08,29,8.30
2008,05,01,08,30,8.30
2008,05,01,08,31,8.30
2008,05,01,08,32,8.30
2008,05,01,08,33,8.30
2008,05,01,08,34,8.30
2008,05,01,08,35,8.30
2008,05,01,08,36,8.20
2008,05,01,08,37,8.20
2008,05,01,08,38,8.30
2008,05,01,08,39,8.30
2008,05,01,08,40,8.30
2008,05,01,08,41,8.30
2008,05,01,08,42,8.30
2008,05,01,08,43,8.30
2008,05,01,08,44,8.30
2008,05,01,08,45,8.30
2008,05,01,08,46,8.40
2008,05,01,08,47,8.40
2008,05,01,08,48,8.40
2008,05,01,08,49,8.40
2008,05,01,08,50,8.50
2008,05,01,08,51,8.50
2008,05,01,08,52,8.60
2008,05,01,08,53,8.60
2008,05,01,08,54,8.60
2008,05,01,08,55,8.60
2008,05,01,08,56,8.60
2008,05,01,08,57,8.60
2008,05,01,08,58,8.60
2008,05,01,08,59,8.60
2008,05,01,09,00,8.60
2008,05,01,09,01,8.50
2008,05,01,09,02,8.50
2008,05,01,09,03,8.50
2008,05,01,09,04,8.50
2008,05,01,09,05,8.50
2008,05,01,09,06,8.50
2008,05,01,09,07,8.50
2008,05,01,09,08,8.50
2008,05,01,09,09,8.50
2008,05,01,09,10,8.50
2008,05,01,09,11,8.60
2008,05,01,09,12,8.60
2008,05,01,09,13,8.60
2008,05,01,09,14,8.60
2008,05,01,09,15,8.60
2008,05,01,09,16,8.70
2008,05,01,09,17,8.70
2008,05,01,09,18,8.70
2008,05,01,09,19,8.80
2008,05,01,09,20,8.80
2008,05,01,09,21,8.80
2008,05,01,09,22,8.80
2008,05,01,09,23,8.80
2008,05,01,09,24,8.80
2008,05,01,09,25,8.80
2008,05,01,09,26,8.80
2008,05,01,09,27,8.80
2008,05,01,09,28,8.80
2008,05,01,09,29,8.80
2008,05,01,09,30,8.80
2008,05,01,09,31,8.80
2008,05,01,09,32,8.80
2008,05,01,09,33,8.90
2008,05,01,09,34,8.90
2008,05,01,09,35,9.00
2008,05,01,09,36,9.10
2008,05,01,09,37,9.20
2008,05,01,09,38,9.20
2008,05,01,09,39,9.30
2008,05,01,09,40,9.30
2008,05,01,09,41,9.30
2008,05,01,09,42,9.30
2008,05,01,09,43,9.40
2008,05,01,09,44,9.50
2008,05,01,09,45,9.60
2008,05,01,09,46,9.60
2008,05,01,09,47,9.50
2008,05,01,09,48,9.40
2008,05,01,09,49,9.40
2008,05,01,09,50,9.40
2008,05,01,09,51,9.40
2008,05,01,09,52,9.40
2008,05,01,09,53,9.40
2008,05,01,09,54,9.40
2008,05,01,09,55,9.30
2008,05,01,09,56,9.40
2008,05,01,09,57,9.40
2008,05,01,09,58,9.40
2008,05,01,09,59,9.40
2008,05,01,10,00,9.40
2008,05,01,10,01,9.50
2008,05,01,10,02,9.40
2008,05,01,10,03,9.40
2008,05,01,10,04,9.40
2008,05,01,10,05,9.30
2008,05,01,10,06,9.30
2008,05,01,10,07,9.30
2008,05,01,10,08,9.30
2008,05,01,10,09,9.30
2008,05,01,10,10,9.40
2008,05,01,10,11,9.40
2008,05,01,10,12,9.40
2008,05,01,10,13,9.40
2008,05,01,10,14,9.40
2008,05,01,10,15,9.40
2008,05,01,10,16,9.40
2008,05,01,10,17,9.50
2008,05,01,10,18,9.50
2008,05,01,10,19,9.50
2008,05,01,10,20,9.50
2008,05,01,10,21,9.60
2008,05,01,10,22,9.60
2008,05,01,10,23,9.60
2008,05,01,10,24,9.60
2008,05,01,10,25,9.50
2008,05,01,10,26,9.40
2008,05,01,10,27,9.30
2008,05,01,10,28,9.30
2008,05,01,10,29,9.20
2008,05,01,10,30,9.20
2008,05,01,10,31,9.20
2008,05,01,10,32,9.30
2008,05,01,10,33,9.30
2008,05,01,10,34,9.30
2008,05,01,10,35,9.30
2008,05,01,10,36,9.30
2008,05,01,10,37,9.30
2008,05,01,10,38,9.30
2008,05,01,10,39,9.30
2008,05,01,10,40,9.40
2008,05,01,10,41,9.40
2008,05,01,10,42,9.40
2008,05,01,10,43,9.50
2008,05,01,10,44,9.50
2008,05,01,10,45,9.50
2008,05,01,10,46,9.60
2008,05,01,10,47,9.60
2008,05,01,10,48,9.60
2008,05,01,10,49,9.60
2008,05,01,10,50,9.60
2008,05,01,10,51,9.50
2008,05,01,10,52,9.50
2008,05,01,10,53,9.40
2008,05,01,10,54,9.30
2008,05,01,10,55,9.20
2008,05,01,10,56,9.10
2008,05,01,10,57,9.10
2008,05,01,10,58,9.10
2008,05,01,10,59,9.20
2008,05,01,11,00,9.20
2008,05,01,11,01,9.20
2008,05,01,11,02,9.20
2008,05,01,11,03,9.20
2008,05,01,11,04,9.20
2008,05,01,11,05,9.20
2008,05,01,11,06,9.20
2008,05,01,11,07,9.20
2008,05,01,11,08,9.20
2008,05,01,11,09,9.10
2008,05,01,11,10,9.10
2008,05,01,11,11,9.10
2008,05,01,11,12,9.10
2008,05,01,11,13,9.10
2008,05,01,11,14,9.20
2008,05,01,11,15,9.20
2008,05,01,11,16,9.30
2008,05,01,11,17,9.30
2008,05,01,11,18,9.40
2008,05,01,11,19,9.50
2008,05,01,11,20,9.50
2008,05,01,11,21,9.60
2008,05,01,11,22,9.60
2008,05,01,11,23,9.50
2008,05,01,11,24,9.40
2008,05,01,11,25,9.40
2008,05,01,11,26,9.30
2008,05,01,11,27,9.30
2008,05,01,11,28,9.30
2008,05,01,11,29,9.30
2008,05,01,11,30,9.40
2008,05,01,11,31,9.50
2008,05,01,11,32,9.60
2008,05,01,11,33,9.60
2008,05,01,11,34,9.70
2008,05,01,11,35,9.80
2008,05,01,11,36,9.80
2008,05,01,11,37,9.80
2008,05,01,11,38,9.90
2008,05,01,11,39,9.90
2008,05,01,11,40,9.90
2008,05,01,11,41,9.90
2008,05,01,11,42,9.90
2008,05,01,11,43,9.90
2008,05,01,11,44,9.90
2008,05,01,11,45,9.90
2008,05,01,11,46,9.80
2008,05,01,11,47,9.80
2008,05,01,11,48,9.90
2008,05,01,11,49,9.90
2008,05,01,11,50,9.80
2008,05,01,11,51,9.80
2008,05,01,11,52,9.80
2008,05,01,11,53,9.80
2008,05,01,11,54,9.80
2008,05,01,11,55,9.80
2008,05,01,11,56,9.80
2008,05,01,11,57,9.80
2008,05,01,11,58,9.80
2008,05,01,11,59,9.90
2008,05,01,12,00,9.90
2008,05,01,12,01,9.90
2008,05,01,12,02,9.90
2008,05,01,12,03,9.90
2008,05,01,12,04,9.90
2008,05,01,12,05,10.00
2008,05,01,12,06,10.00
2008,05,01,12,07,10.10
2008,05,01,12,08,10.20
2008,05,01,12,09,10.20
2008,05,01,12,10,10.20
2008,05,01,12,11,10.20
2008,05,01,12,12,10.10
2008,05,01,12,13,10.10
2008,05,01,12,14,10.10
2008,05,01,12,15,10.10
2008,05,01,12,16,10.10
2008,05,01,12,17,10.20
2008,05,01,12,18,10.20
2008,05,01,12,19,10.20
2008,05,01,12,20,10.10
2008,05,01,12,21,10.10
2008,05,01,12,22,10.10
2008,05,01,12,23,10.10
2008,05,01,12,24,10.10
2008,05,01,12,25,10.10
2008,05,01,12,26,10.10
2008,05,01,12,27,10.10
2008,05,01,12,28,10.00
2008,05,01,12,29,10.00
2008,05,01,12,30,10.00
2008,05,01,12,31,10.00
2008,05,01,12,32,10.00
2008,05,01,12,33,10.00
2008,05,01,12,34,10.00
2008,05,01,12,35,10.00
2008,05,01,12,36,10.00
2008,05,01,12,37,10.00
2008,05,01,12,38,10.00
2008,05,01,12,39,10.00
2008,05,01,12,40,10.00
2008,05,01,12,41,10.00
2008,05,01,12,42,10.00
2008,05,01,12,43,10.00
2008,05,01,12,44,10.10
2008,05,01,12,45,10.10
2008,05,01,12,46,10.20
2008,05,01,12,47,10.20
2008,05,01,12,48,10.20
2008,05,01,12,49,10.20
2008,05,01,12,50,10.20
2008,05,01,12,51,10.20
2008,05,01,12,52,10.20
2008,05,01,12,53,10.20
2008,05,01,12,54,10.10
2008,05,01,12,55,10.10
2008,05,01,12,56,10.10
2008,05,01,12,57,10.10
2008,05,01,12,58,10.10
2008,05,01,12,59,10.10
2008,05,01,13,00,10.10
2008,05,01,13,01,10.00
2008,05,01,13,02,10.00
2008,05,01,13,03,10.00
2008,05,01,13,04,9.90
2008,05,01,13,05,9.90
2008,05,01,13,06,9.90
2008,05,01,13,07,9.90
2008,05,01,13,08,9.80
2008,05,01,13,09,9.80
2008,05,01,13,10,9.80
2008,05,01,13,11,9.80
2008,05,01,13,12,9.90
2008,05,01,13,13,10.00
2008,05,01,13,14,10.10
2008,05,01,13,15,10.10
2008,05,01,13,16,10.10
2008,05,01,13,17,10.10
2008,05,01,13,18,10.10
2008,05,01,13,19,10.10
2008,05,01,13,20,10.20
2008,05,01,13,21,10.20
2008,05,01,13,22,10.20
2008,05,01,13,23,10.20
2008,05,01,13,24,10.20
2008,05,01,13,25,10.20
2008,05,01,13,26,10.30
2008,05,01,13,27,10.30
2008,05,01,13,28,10.30
2008,05,01,13,29,10.30
2008,05,01,13,30,10.40
2008,05,01,13,31,10.40
2008,05,01,13,32,10.40
2008,05,01,13,33,10.50
2008,05,01,13,34,10.60
2008,05,01,13,35,10.60
2008,05,01,13,36,10.60
2008,05,01,13,37,10.70
2008,05,01,13,38,10.60
2008,05,01,13,39,10.60
2008,05,01,13,40,10.50
2008,05,01,13,41,10.50
2008,05,01,13,42,10.50
2008,05,01,13,43,10.60
2008,05,01,13,44,10.60
2008,05,01,13,45,10.60
2008,05,01,13,46,10.60
2008,05,01,13,47,10.60
2008,05,01,13,48,10.50
2008,05,01,13,49,10.50
2008,05,01,13,50,10.40
2008,05,01,13,51,10.40
2008,05,01,13,52,10.30
2008,05,01,13,53,10.30
2008,05,01,13,54,10.30
2008,05,01,13,55,10.30
2008,05,01,13,56,10.30
2008,05,01,13,57,10.30
2008,05,01,13,58,10.30
2008,05,01,13,59,10.30
2008,05,01,14,00,10.30
2008,05,01,14,01,10.30
2008,05,01,14,02,10.20
2008,05,01,14,03,10.30
2008,05,01,14,04,10.30
2008,05,01,14,05,10.30
2008,05,01,14,06,10.30
2008,05,01,14,07,10.30
2008,05,01,14,08,10.20
2008,05,01,14,09,10.30
2008,05,01,14,10,10.30
2008,05,01,14,11,10.30
2008,05,01,14,12,10.40
2008,05,01,14,13,10.40
2008,05,01,14,14,10.40
2008,05,01,14,15,10.40
2008,05,01,14,16,10.30
2008,05,01,14,17,10.30
2008,05,01,14,18,10.30
2008,05,01,14,19,10.30
2008,05,01,14,20,10.30
2008,05,01,14,21,10.30
2008,05,01,14,22,10.30
2008,05,01,14,23,10.30
2008,05,01,14,24,10.30
2008,05,01,14,25,10.30
2008,05,01,14,26,10.30
2008,05,01,14,27,10.30
2008,05,01,14,28,10.30
2008,05,01,14,29,10.40
2008,05,01,14,30,10.40
2008,05,01,14,31,10.50
2008,05,01,14,32,10.50
2008,05,01,14,33,10.60
2008,05,01,14,34,10.60
2008,05,01,14,35,10.60
2008,05,01,14,36,10.60
2008,05,01,14,37,10.50
2008,05,01,14,38,10.50
2008,05,01,14,39,10.40
2008,05,01,14,40,10.40
2008,05,01,14,41,10.40
2008,05,01,14,42,10.40
2008,05,01,14,43,10.40
2008,05,01,14,44,10.40
2008,05,01,14,45,10.40
2008,05,01,14,46,10.30
2008,05,01,14,47,10.30
2008,05,01,14,48,10.30
2008,05,01,14,49,10.30
2008,05,01,14,50,10.30
2008,05,01,14,51,10.30
2008,05,01,14,52,10.20
2008,05,01,14,53,10.20
2008,05,01,14,54,10.20
2008,05,01,14,55,10.30
2008,05,01,14,56,10.30
2008,05,01,14,57,10.30
2008,05,01,14,58,10.30
2008,05,01,14,59,10.20
2008,05,01,15,00,10.20
2008,05,01,15,01,10.20
2008,05,01,15,02,10.10
2008,05,01,15,03,10.10
2008,05,01,15,04,10.10
2008,05,01,15,05,10.20
2008,05,01,15,06,10.20
2008,05,01,15,07,10.20
2008,05,01,15,08,10.20
2008,05,01,15,09,10.20
2008,05,01,15,10,10.20
2008,05,01,15,11,10.10
2008,05,01,15,12,10.10
2008,05,01,15,13,10.10
2008,05,01,15,14,10.10
2008,05,01,15,15,10.10
2008,05,01,15,16,10.10
2008,05,01,15,17,10.10
2008,05,01,15,18,10.10
2008,05,01,15,19,10.10
2008,05,01,15,20,10.00
2008,05,01,15,21,10.00
2008,05,01,15,22,10.00
2008,05,01,15,23,9.90
2008,05,01,15,24,9.90
2008,05,01,15,25,9.80
2008,05,01,15,26,9.80
2008,05,01,15,27,9.70
2008,05,01,15,28,9.70
2008,05,01,15,29,9.80
2008,05,01,15,30,9.70
2008,05,01,15,31,9.70
2008,05,01,15,32,9.70
2008,05,01,15,33,9.70
2008,05,01,15,34,9.70
2008,05,01,15,35,9.70
2008,05,01,15,36,9.70
2008,05,01,15,37,9.70
2008,05,01,15,38,9.70
2008,05,01,15,39,9.70
2008,05,01,15,40,9.70
2008,05,01,15,41,9.70
2008,05,01,15,42,9.70
2008,05,01,15,43,9.70
2008,05,01,15,44,9.70
2008,05,01,15,45,9.70
2008,05,01,15,46,9.70
2008,05,01,15,47,9.70
2008,05,01,15,48,9.60
2008,05,01,15,49,9.60
2008,05,01,15,50,9.70
2008,05,01,15,51,9.70
2008,05,01,15,52,9.60
2008,05,01,15,53,9.60
2008,05,01,15,54,9.60
2008,05,01,15,55,9.60
2008,05,01,15,56,9.60
2008,05,01,15,57,9.60
2008,05,01,15,58,9.60
2008,05,01,15,59,9.60
2008,05,01,16,00,9.60
2008,05,01,16,01,9.60
2008,05,01,16,02,9.60
2008,05,01,16,03,9.60
2008,05,01,16,04,9.50
2008,05,01,16,05,9.50
2008,05,01,16,06,9.50
2008,05,01,16,07,9.50
2008,05,01,16,08,9.40
2008,05,01,16,09,9.40
2008,05,01,16,10,9.40
2008,05,01,16,11,9.40
2008,05,01,16,12,9.40
2008,05,01,16,13,9.40
2008,05,01,16,14,9.40
2008,05,01,16,15,9.40
2008,05,01,16,16,9.40
2008,05,01,16,17,9.40
2008,05,01,16,18,9.40
2008,05,01,16,19,9.40
2008,05,01,16,20,9.40
2008,05,01,16,21,9.30
2008,05,01,16,22,9.40
2008,05,01,16,23,9.40
2008,05,01,16,24,9.40
2008,05,01,16,25,9.40
2008,05,01,16,26,9.40
2008,05,01,16,27,9.40
2008,05,01,16,28,9.40
2008,05,01,16,29,9.40
2008,05,01,16,30,9.40
2008,05,01,16,31,9.40
2008,05,01,16,32,9.40
2008,05,01,16,33,9.50
2008,05,01,16,34,9.50
2008,05,01,16,35,9.50
2008,05,01,16,36,9.60
2008,05,01,16,37,9.60
2008,05,01,16,38,9.60
2008,05,01,16,39,9.60
2008,05,01,16,40,9.60
2008,05,01,16,41,9.60
2008,05,01,16,42,9.70
2008,05,01,16,43,9.70
2008,05,01,16,44,9.60
2008,05,01,16,45,9.70
2008,05,01,16,46,9.70
2008,05,01,16,47,9.70
2008,05,01,16,48,9.70
2008,05,01,16,49,9.70
2008,05,01,16,50,9.70
2008,05,01,16,51,9.70
2008,05,01,16,52,9.70
2008,05,01,16,53,9.70
2008,05,01,16,54,9.70
2008,05,01,16,55,9.70
2008,05,01,16,56,9.70
2008,05,01,16,57,9.70
2008,05,01,16,58,9.70
2008,05,01,16,59,9.70
2008,05,01,17,00,9.80
2008,05,01,17,01,9.80
2008,05,01,17,02,9.80
2008,05,01,17,03,9.80
2008,05,01,17,04,9.80
2008,05,01,17,05,9.80
2008,05,01,17,06,9.90
2008,05,01,17,07,9.90
2008,05,01,17,08,9.90
2008,05,01,17,09,9.90
2008,05,01,17,10,9.90
2008,05,01,17,11,9.90
2008,05,01,17,12,10.00
2008,05,01,17,13,10.00
2008,05,01,17,14,10.00
2008,05,01,17,15,10.00
2008,05,01,17,16,10.00
2008,05,01,17,17,10.00
2008,05,01,17,18,9.90
2008,05,01,17,19,10.00
2008,05,01,17,20,10.00
2008,05,01,17,21,10.00
2008,05,01,17,22,10.00
2008,05,01,17,23,10.00
2008,05,01,17,24,10.00
2008,05,01,17,25,10.10
2008,05,01,17,26,10.10
2008,05,01,17,27,10.10
2008,05,01,17,28,10.00
2008,05,01,17,29,10.00
2008,05,01,17,30,10.10
2008,05,01,17,31,10.10
2008,05,01,17,32,10.10
2008,05,01,17,33,10.10
2008,05,01,17,34,10.10
2008,05,01,17,35,10.10
2008,05,01,17,36,10.10
2008,05,01,17,37,10.10
2008,05,01,17,38,10.10
2008,05,01,17,39,10.10
2008,05,01,17,40,10.10
2008,05,01,17,41,10.10
2008,05,01,17,42,10.10
2008,05,01,17,43,10.10
2008,05,01,17,44,10.10
2008,05,01,17,45,10.10
2008,05,01,17,46,10.10
2008,05,01,17,47,10.10
2008,05,01,17,48,10.10
2008,05,01,17,49,10.10
2008,05,01,17,50,10.10
2008,05,01,17,51,10.10
2008,05,01,17,52,10.10
2008,05,01,17,53,10.10
2008,05,01,17,54,10.10
2008,05,01,17,55,10.10
2008,05,01,17,56,10.20